Probability
1 1 2 2 3 5 5 4 3 3 3 3 2 2 2 3 3 3 3 2 1 0 1 2 2 3 4 4 3 3 3 3 3 2 3 3 3 3 3 4 3 1 0
2 2 2 2 3 5 5 4 3 4 3 3 2 2 2 3 2 1 1 1 1 1 0 1 1 1 1 1 1 2 3 3 3 3 3 3 3 3 3 3 2 1 0
3 4 3 3 3 5 5 4 4 4 4 3 3 2 3 3 2 1 1 1 2 2 1 0 0 0 0 0 0 1 2 3 3 3 3 3 3 3 3 2 1 0 0
4 5 5 4 4 4 4 3 3 4 3 3 3 3 3 3 2 2 2 2 3 3 2 1 1 1 0 0 0 0 1 2 3 3 3 3 3 3 3 2 0 0 0
4 5 5 5 5 4 4 3 3 3 4 3 3 3 3 3 3 2 1 1 2 2 2 3 2 1 0 0 0 0 0 1 2 3 3 3 2 1 2 1 0 0 0
3 4 4 4 4 4 3 2 2 3 3 3 3 3 4 3 3 3 1 0 1 1 1 2 1 0 0 0 0 0 0 1 1 1 2 2 2 1 1 0 0 0 0
2 2 2 3 4 3 3 2 1 1 2 3 3 3 4 4 5 4 2 1 0 0 1 1 1 1 1 0 0 0 0 1 0 0 1 1 2 2 2 1 1 1 0
2 1 1 2 4 5 4 4 2 0 1 1 2 3 5 6 7 5 3 1 1 2 3 3 4 4 3 2 1 0 0 0 0 0 0 0 1 2 2 2 2 2 1
4 3 2 3 4 5 6 6 5 3 2 2 2 3 5 6 7 6 4 3 4 5 5 6 6 5 4 3 2 1 0 0 0 0 0 0 0 1 1 2 3 3 3
6 7 6 7 7 7 7 8 8 8 7 5 5 5 6 6 6 6 6 6 6 7 6 6 7 6 5 3 3 2 1 1 1 1 0 0 0 0 0 1 1 2 3
6 8 9 11 11 10 9 9 10 12 12 10 9 10 10 9 8 7 8 8 9 8 8 8 8 7 6 4 3 3 2 1 1 1 0 0 0 0 0 0 0 1 2
7 8 10 13 14 13 11 10 11 12 12 11 12 13 14 13 12 10 8 9 10 10 11 11 9 8 6 5 4 3 2 1 0 0 0 0 0 0 0 0 0 0 1
9 10 12 14 15 13 12 11 10 9 9 10 12 13 15 16 16 14 11 10 9 10 11 11 9 8 6 4 4 3 2 1 0 0 0 0 0 0 0 0 0 0 0
9 11 12 13 13 13 13 11 10 8 8 9 11 12 14 16 17 17 16 14 11 9 8 8 8 7 6 4 3 2 2 1 0 0 0 0 0 0 0 0 0 0 0
9 10 12 12 12 13 13 12 11 9 9 10 10 11 12 13 15 17 19 18 15 11 8 7 7 7 6 4 3 2 2 1 0 0 0 0 0 0 0 0 0 0 0
9 9 10 11 12 12 12 10 10 10 10 10 10 10 11 12 13 15 17 19 18 15 10 8 7 6 6 5 3 3 3 1 1 0 0 0 0 0 0 0 0 0 0
7 7 8 10 10 9 7 7 7 8 9 8 8 8 8 9 10 12 14 15 16 15 12 10 8 7 7 7 5 4 3 3 2 1 0 0 0 0 0 0 0 0 0
8 8 9 10 9 6 5 4 5 6 6 5 5 5 5 6 7 9 10 10 11 13 13 12 10 8 9 8 6 4 3 4 3 1 0 0 0 0 0 0 0 0 0
10 11 12 13 10 6 4 3 4 5 4 3 3 3 3 3 5 7 7 7 7 8 11 13 12 10 9 8 7 6 5 5 4 2 1 0 0 0 0 0 0 0 0
12 13 14 15 12 8 5 3 3 5 5 5 4 4 3 3 4 5 6 5 5 6 8 12 13 10 8 8 8 8 8 8 6 4 3 1 1 0 0 0 0 0 0
12 12 13 13 11 8 4 3 4 5 7 8 7 5 4 3 3 3 3 4 4 5 6 9 10 9 8 8 9 9 9 7 5 6 5 3 2 1 0 0 0 0 0
9 10 11 11 9 6 3 2 3 5 9 11 10 7 6 4 2 1 1 1 3 3 4 5 5 5 6 6 6 6 6 5 4 5 5 3 2 1 0 0 0 0 0
8 9 10 9 7 4 1 0 1 3 7 10 11 9 7 5 4 2 1 1 1 1 2 3 3 3 3 3 2 3 4 5 4 4 4 2 1 0 0 0 0 0 0
10 10 10 10 7 3 1 0 0 1 3 5 8 9 8 7 5 4 3 2 2 1 1 1 2 2 1 1 1 1 2 4 5 5 5 3 1 1 0 0 0 0 0
12 11 10 9 7 4 1 0 0 0 0 2 5 7 7 7 5 3 3 3 4 4 3 2 1 1 1 0 1 1 2 3 4 7 7 4 3 2 1 0 0 0 0
12 12 10 9 7 4 1 0 0 0 0 1 5 6 5 5 4 2 3 3 4 6 6 4 1 0 0 0 1 2 3 2 3 7 9 5 4 4 2 1 0 0 0
Wind_Speed
1 1 1 0 1 0 1 1 0 1 1 1 0 0 0 1 0 1 4 7 4 3 3 4 4 4 4 4 4 4 5 6 6 6 6 6 6 6 5 5 4 4 4
0 1 1 1 0 0 0 1 1 1 1 0 0 0 1 0 1 1 1 6 6 4 4 3 4 4 4 3 3 4 4 5 5 5 6 6 6 6 6 6 5 5 4
1 1 1 1 0 0 1 1 1 1 1 1 1 1 1 1 1 1 2 2 5 7 6 4 4 4 4 4 4 4 4 5 5 5 6 6 7 7 7 7 6 5 5
1 2 1 0 0 1 1 1 1 1 1 1 1 1 1 1 2 2 3 2 2 3 7 7 5 4 4 4 4 5 5 5 5 5 6 6 7 7 7 7 7 6 6
1 1 1 1 1 1 1 2 0 1 1 1 2 2 2 2 2 2 2 3 2 2 3 8 8 5 4 4 4 5 4 5 5 5 6 6 7 7 7 7 7 7 6
1 1 1 1 2 1 1 1 1 1 2 2 3 1 2 2 2 2 3 3 3 3 3 3 5 6 7 5 5 5 5 5 5 5 5 5 6 7 7 7 7 7 6
1 1 1 1 2 1 1 2 2 2 2 2 3 2 3 3 2 2 2 2 3 3 3 3 3 2 5 9 7 5 4 5 5 5 6 6 6 6 7 8 7 7 6
2 2 2 2 1 1 2 2 2 3 2 1 3 3 2 3 4 3 2 2 3 3 4 4 3 3 3 3 6 7 5 5 5 5 6 6 6 6 6 7 7 7 7
2 2 2 2 1 2 1 2 2 3 3 2 2 3 3 1 1 3 2 2 2 2 3 3 4 4 4 2 3 7 5 4 5 5 5 6 7 7 6 7 7 7 7
2 2 2 2 2 1 1 3 1 2 3 3 1 2 3 3 4 1 2 2 3 3 2 3 3 4 4 3 2 3 5 4 4 5 5 5 6 6 6 7 6 7 7
2 2 1 1 1 1 1 2 2 3 3 3 2 2 2 2 4 4 3 2 2 2 1 2 2 2 3 2 2 4 6 5 5 5 5 5 5 5 6 7 7 7 7
2 2 2 1 1 1 1 2 2 2 3 3 3 3 3 3 3 3 4 3 2 1 1 1 2 2 2 2 2 5 5 5 5 5 6 6 6 6 6 6 6 6 7
2 2 1 1 1 1 2 2 2 2 3 3 3 3 3 3 3 4 4 3 3 1 1 1 1 1 1 1 2 5 5 4 5 5 5 5 6 6 6 6 6 5 5
1 1 1 1 2 2 2 2 2 2 2 3 4 3 4 3 3 3 4 4 3 2 1 1 1 1 0 0 2 4 3 5 5 6 6 6 6 6 6 6 5 4 4
1 1 2 2 2 2 2 2 2 3 2 3 3 3 4 3 3 3 4 4 4 4 2 1 1 1 1 0 2 2 2 5 6 6 7 6 6 6 6 5 5 5 5
1 1 1 1 2 2 2 2 2 2 3 3 3 3 4 3 3 3 3 4 4 4 3 2 1 0 1 1 2 2 1 5 6 7 7 7 7 7 7 6 6 6 6
0 1 1 1 1 1 1 1 2 2 3 3 3 3 3 3 3 3 3 3 4 4 4 3 1 1 1 2 1 2 3 3 4 7 8 8 8 8 7 7 7 6 6
1 0 1 1 1 1 1 2 2 2 2 2 3 3 3 2 3 4 3 3 3 3 4 4 2 1 2 2 2 3 3 3 3 6 8 8 8 8 8 7 7 6 6
1 0 0 0 0 1 1 2 2 2 2 2 2 2 3 3 3 3 4 3 3 3 3 4 3 2 2 2 3 3 3 3 4 5 8 9 8 8 8 8 7 7 7
1 0 0 0 0 1 1 2 1 2 2 2 2 2 3 3 3 4 3 3 3 3 3 3 3 2 2 2 3 3 3 2 3 3 3 4 6 8 8 8 8 8 8
1 0 0 0 0 0 1 2 2 2 2 2 2 1 1 2 3 4 4 4 3 3 3 3 3 2 2 2 3 3 2 2 2 2 2 3 4 5 7 8 9 9 9
1 1 0 0 1 2 5 4 4 3 2 2 2 2 1 1 1 2 2 4 4 4 3 3 3 2 3 3 3 3 2 2 2 2 3 3 3 3 4 4 7 9 9
1 1 0 0 0 3 3 2 3 3 2 2 2 2 2 1 2 2 2 4 4 4 4 4 4 4 3 3 3 3 3 3 3 1 3 3 3 3 3 3 7 9 8
1 0 0 0 0 2 2 1 3 3 2 2 2 2 2 2 2 4 3 2 2 2 3 3 3 4 3 2 3 4 3 3 3 2 2 3 2 3 3 2 7 7 8
1 1 1 1 1 1 2 1 4 2 1 2 2 2 3 2 2 4 4 3 2 2 2 2 2 3 3 3 3 3 2 3 3 2 2 3 2 2 3 3 5 9 8
2 2 1 1 1 1 1 1 4 3 2 2 2 2 1 2 2 4 4 3 3 3 3 2 3 5 5 4 4 4 3 3 3 2 1 3 3 2 3 3 3 4 5
Wind_Direction
175 152 161 252 261 111 182 236 262 176 239 240 243 281 5 74 113 162 128 140 158 173 167 160 162 170 174 175 171 175 173 174 182 186 188 183 178 175 172 172 176 176 183
128 208 190 204 247 248 325 275 207 193 223 8 264 269 293 270 128 219 157 149 163 171 175 174 172 174 178 190 188 190 185 180 184 193 196 189 181 177 174 178 181 182 184
195 252 235 213 192 211 208 246 238 215 204 216 228 230 222 238 202 194 226 200 164 168 177 185 184 180 182 190 200 199 193 196 197 199 199 191 187 182 181 182 186 185 185
227 250 250 247 303 254 223 227 248 255 234 266 267 273 233 194 219 218 221 215 217 173 167 171 178 183 195 197 204 204 201 201 200 202 205 200 194 189 185 186 188 187 193
207 242 267 25 264 267 268 277 61 286 264 281 260 229 250 233 222 221 224 223 203 212 175 156 172 185 195 197 204 209 210 208 205 208 208 200 194 189 185 189 191 190 194
195 250 213 214 262 252 267 303 291 275 284 281 282 277 261 256 238 221 231 209 200 209 207 180 178 178 186 194 203 212 215 214 211 208 207 197 191 188 189 191 195 192 190
187 251 278 200 260 267 296 283 276 251 255 278 274 260 225 214 215 219 227 232 203 210 212 205 211 201 180 185 195 205 211 214 210 209 208 201 191 186 192 196 193 188 189
208 210 254 258 263 259 249 279 281 288 277 263 290 285 254 196 197 189 208 213 231 212 210 208 210 210 234 195 160 182 205 214 214 212 207 198 191 190 190 194 191 192 194
217 240 236 257 258 266 267 275 267 276 287 269 287 297 300 322 293 178 198 217 232 238 232 217 213 209 220 224 178 169 188 204 212 205 198 192 192 190 192 195 195 197 195
201 214 224 230 255 275 279 264 266 277 274 278 233 265 304 327 299 284 199 192 214 231 243 244 219 205 214 216 174 144 171 189 202 198 189 184 187 189 192 194 195 194 194
193 193 210 239 249 266 284 296 301 287 281 286 290 272 264 256 264 285 285 266 236 228 224 229 225 208 209 211 198 152 160 176 195 197 190 188 190 192 194 191 194 196 200
194 180 200 219 256 284 278 271 269 256 284 293 293 290 282 285 287 282 285 279 274 264 230 230 212 206 197 194 175 129 159 176 189 192 190 192 195 198 196 195 198 200 204
199 172 196 214 270 283 280 279 257 270 264 269 271 278 285 287 297 292 288 290 287 265 211 220 207 204 200 169 136 144 162 176 187 187 188 191 193 194 193 194 195 198 203
256 211 221 230 250 267 275 266 256 251 251 260 269 281 283 285 290 285 288 292 288 277 238 250 227 188 246 175 105 191 175 173 187 188 190 191 193 195 192 192 194 196 200
261 247 249 246 250 256 265 256 261 266 259 260 265 260 270 280 279 282 280 284 285 290 292 211 242 185 252 203 128 213 206 169 186 193 196 195 195 193 191 188 190 193 198
316 282 277 264 259 255 250 259 255 256 260 262 273 281 279 278 278 272 270 269 268 275 280 297 274 242 272 244 157 223 235 161 184 194 198 198 198 196 196 194 194 194 198
302 303 303 286 285 289 286 278 281 279 273 276 275 270 271 284 286 283 275 271 264 259 262 279 283 153 207 258 196 235 232 227 192 182 195 200 200 199 199 196 194 197 201
192 210 267 291 305 318 316 307 298 293 287 289 289 282 279 274 275 281 282 277 273 268 258 260 265 244 230 235 239 247 248 239 232 170 185 196 199 198 200 200 200 201 202
165 187 179 261 301 326 322 311 304 305 310 309 307 302 298 293 288 291 282 280 274 270 257 255 260 257 253 241 238 241 244 251 247 175 178 188 194 197 201 202 204 202 201
119 159 173 249 293 317 316 303 291 296 295 292 299 299 302 309 310 302 283 281 282 281 265 263 264 255 249 240 241 241 240 228 249 225 189 190 185 196 203 201 202 202 202
108 69 49 79 258 267 356 335 302 287 286 284 287 299 324 347 348 325 317 309 290 273 268 265 264 267 256 253 253 258 258 245 240 247 218 212 197 207 195 200 202 203 205
59 60 45 26 2 29 43 14 325 314 299 289 294 295 242 176 300 255 294 307 305 286 286 281 268 268 269 266 273 266 264 251 245 216 240 234 218 224 218 202 176 189 200
96 72 19 324 29 63 61 16 330 306 303 310 306 301 297 11 290 304 244 229 238 242 250 273 282 282 274 269 272 263 260 262 269 252 244 237 214 224 233 174 154 176 192
133 115 300 327 51 85 91 359 308 271 305 302 302 302 305 316 348 318 301 298 288 269 249 249 275 288 297 300 263 266 271 255 246 227 231 248 225 231 235 194 157 177 190
166 200 206 236 229 128 116 281 295 273 270 278 284 307 306 305 15 312 279 281 285 260 204 207 260 281 317 322 304 274 256 252 245 219 224 261 259 250 238 217 174 181 192
202 215 190 219 236 243 144 238 290 284 290 281 250 211 135 317 337 312 280 278 278 288 291 250 224 227 233 221 224 248 261 263 265 244 192 256 267 273 256 228 210 194 201